Location: Caseificio
(44.7500°N, 11.0500°E)
Time: 00:13:39
(UTC+00:00)

Cosmos 1455 Rocket - Pass Details

Date: 26 May 2022
Orbit: 604 x 629 km, 82.5° (Epoch: 26 June)

Event Time Altitude Azimuth Distance (km) Brightness Sun altitude
Rises 00:18:15 0° 355° (N) 2,930 7.7 -22.5°
Reaches altitude 10° 00:20:33 10° 360° (N) 2,017 6.7 -22.4°
Maximum altitude 00:24:57 55° 79° (ENE) 757 3.6 -22.1°
Enters shadow 00:26:12 40° 131° (SE) 926 3.7 -22.1°
